DW9768 Weather Reports


Display with metric or nautical units.
time (UTC)temp
F
wind
direction
speed
MPH
gust
MPH
rain 1hr
in
rain 24hr
in
rain mn
in
humidity
%
barometer
mb
20260508064558 46 123 11.0 15.0 0.00 0.00 0.00 74 1020.1
20260508063058 46 154 10.0 15.0 0.00 0.00 0.00 74 1020.0
20260508061555 46 151 12.0 16.0 0.00 0.00 0.00 76 1020.0
20260508060054 45 155 11.0 19.0 0.00 0.00 0.00 76 1019.9
20260508054552 45 151 11.0 15.0 0.00 0.00 0.00 77 1019.8
20260508053052 45 155 9.0 12.0 0.00 0.00 0.00 78 1019.6
20260508051550 45 151 8.0 14.0 0.00 0.00 0.00 78 1019.6
20260508050047 45 142 9.0 14.0 0.00 0.00 0.00 78 1019.4
20260508044545 45 145 9.0 12.0 0.00 0.00 0.00 78 1019.3
20260508043046 45 156 8.0 11.0 0.00 0.00 0.00 77 1019.2
20260508041542 45 148 7.0 11.0 0.00 0.00 0.00 77 1019.2
20260508040041 45 157 9.0 12.0 0.00 0.00 0.00 76 1019.1
20260508034539 45 147 8.0 13.0 0.00 0.00 0.00 76 1019.1
20260508033036 45 150 9.0 14.0 0.00 0.00 0.00 76 1019.0
20260508031534 45 96 10.0 16.0 0.00 0.00 0.00 75 1018.8
20260508030032 45 142 11.0 15.0 0.00 0.00 0.00 75 1018.7
20260508024535 45 146 9.0 12.0 0.00 0.00 0.00 74 1018.7
20260508023028 44 154 5.0 10.0 0.00 0.00 0.00 73 1018.6
20260508021532 45 117 3.0 10.0 0.00 0.00 0.00 72 1018.6
20260508020022 44 140 5.0 8.0 0.00 0.00 0.00 73 1018.6
20260508014521 44 71 2.0 6.0 0.00 0.00 0.00 74 1018.6
20260508013033 44 138 2.0 4.0 0.00 0.00 0.00 76 1018.5
20260508011520 44 136 1.0 5.0 0.00 0.00 0.00 76 1018.5
20260508010017 44 117 2.0 5.0 0.00 0.00 0.00 75 1018.4
20260508004532 44 117 1.0 6.0 0.00 0.00 0.00 75 1018.3
20260508003021 44 109 3.0 6.0 0.00 0.00 0.00 73 1018.4
20260508001518 44 159 2.0 5.0 0.00 0.00 0.00 75 1018.3
20260508000013 44 171 1.0 4.0 0.00 0.00 0.00 75 1018.4
20260507234514 44 202 3.0 5.0 0.00 0.00 0.00 75 1018.4
20260507233022 44 154 3.0 5.0 0.00 0.00 0.00 75 1018.4
20260507231510 44 149 3.0 5.0 0.00 0.00 0.00 74 1018.5
20260507230109 44 158 2.0 5.0 0.00 0.00 0.00 74 1018.5
20260507224506 44 150 1.0 5.0 0.00 0.00 0.00 72 1018.5
20260507223004 45 195 3.0 6.0 0.00 0.00 0.00 72 1018.4
20260507221505 45 207 5.0 6.0 0.00 0.00 0.00 71 1018.4
20260507220058 45 198 4.0 6.0 0.00 0.00 0.00 70 1018.4
20260507214618 45 193 3.0 5.0 0.00 0.00 0.00 68 1018.4
20260507213107 45 173 2.0 4.0 0.00 0.00 0.00 68 1018.3
20260507211615 45 211 3.0 5.0 0.00 0.00 0.00 67 1018.2
20260507210056 46 223 4.0 6.0 0.00 0.00 0.00 67 1018.2
20260507204606 46 226 5.0 7.0 0.00 0.00 0.00 67 1018.2
20260507203059 46 229 6.0 8.0 0.00 0.00 0.00 65 1018.2
20260507201552 46 225 5.0 7.0 0.00 0.00 0.00 65 1018.1
20260507200050 46 238 5.0 7.0 0.00 0.00 0.00 61 1017.9
20260507194616 47 252 5.0 8.0 0.00 0.00 0.00 65 1017.8
20260507193046 47 244 6.0 8.0 0.00 0.00 0.00 63 1017.7
20260507191550 46 261 1.0 3.0 0.00 0.00 0.00 63 1017.5
20260507190044 47 298 0.0 2.0 0.00 0.00 0.00 58 1017.4
20260507184644 47 280 1.0 3.0 0.00 0.00 0.00 56 1017.4
20260507183043 48 250 2.0 5.0 0.00 0.00 0.00 53 1017.3
20260507181543 49 277 3.0 5.0 0.00 0.00 0.00 51 1017.2
20260507180041 49 275 3.0 7.0 0.00 0.00 0.00 49 1017.1
20260507174547 49 243 3.0 7.0 0.00 0.00 0.00 52 1017.1
20260507173041 49 244 4.0 8.0 0.00 0.00 0.00 49 1017.2
20260507171546 49 284 4.0 9.0 0.00 0.00 0.00 46 1017.0
20260507170040 49 271 5.0 8.0 0.00 0.00 0.00 56 1017.1
20260507164537 49 286 6.0 8.0 0.00 0.00 0.00 60 1017.0
20260507163036 49 275 5.0 9.0 0.00 0.00 0.00 62 1017.1
20260507161539 49 259 5.0 9.0 0.00 0.00 0.00 59 1017.1
20260507160035 48 249 6.0 10.0 0.00 0.00 0.00 66 1017.1
20260507154536 48 265 6.0 9.0 0.00 0.00 0.00 66 1017.2
20260507153040 49 253 7.0 10.0 0.00 0.00 0.00 65 1017.1
20260507151533 49 269 7.0 10.0 0.00 0.00 0.00 64 1017.2
20260507150032 48 267 8.0 11.0 0.00 0.00 0.00 67 1017.2
20260507144532 48 253 7.0 12.0 0.00 0.00 0.00 66 1017.1
20260507143030 48 259 8.0 14.0 0.00 0.00 0.00 66 1017.2
20260507141529 48 263 9.0 13.0 0.00 0.00 0.00 66 1017.2
20260507140026 49 266 6.0 14.0 0.00 0.00 0.00 66 1017.3
20260507134526 48 275 10.0 14.0 0.00 0.00 0.00 64 1017.2
20260507133025 48 290 7.0 14.0 0.00 0.00 0.00 59 1017.3
20260507131525 48 298 8.0 12.0 0.00 0.00 0.00 57 1017.5
20260507130032 49 301 7.0 12.0 0.00 0.00 0.00 59 1017.4
20260507124526 48 290 8.0 12.0 0.00 0.00 0.00 58 1017.4
20260507123019 49 293 7.0 11.0 0.00 0.00 0.00 56 1017.3
20260507121518 48 273 8.0 11.0 0.00 0.00 0.00 52 1017.4
20260507120021 48 295 8.0 12.0 0.00 0.00 0.00 53 1017.4
20260507114514 48 282 7.0 12.0 0.00 0.00 0.00 54 1017.4
20260507113012 48 264 7.0 13.0 0.00 0.00 0.00 57 1017.5
20260507111513 48 269 8.0 13.0 0.00 0.00 0.00 55 1017.5
20260507110009 49 306 6.0 10.0 0.00 0.00 0.00 53 1017.6
20260507104506 49 342 6.0 11.0 0.00 0.00 0.00 54 1017.5
20260507103008 48 321 5.0 11.0 0.00 0.00 0.00 56 1017.6
20260507101503 48 325 6.0 11.0 0.00 0.00 0.00 55 1017.4
20260507100100 48 320 3.0 10.0 0.00 0.00 0.00 50 1017.4
20260507094558 47 310 6.0 10.0 0.00 0.00 0.00 53 1017.4
20260507093101 47 312 4.0 8.0 0.00 0.00 0.00 50 1017.4
20260507091556 46 332 7.0 10.0 0.00 0.00 0.00 53 1017.4
20260507090156 46 346 3.0 10.0 0.00 0.00 0.00 53 1017.5
20260507084555 46 325 7.0 10.0 0.00 0.00 0.00 52 1017.5
20260507083053 46 24 2.0 7.0 0.00 0.00 0.00 57 1017.4
20260507081554 46 344 4.0 9.0 0.00 0.00 0.00 55 1017.3
20260507080058 46 351 2.0 7.0 0.00 0.00 0.00 60 1017.2
20260507074550 47 94 1.0 5.0 0.00 0.00 0.00 60 1017.2
20260507073046 46 146 1.0 6.0 0.00 0.00 0.00 62 1017.2
20260507071602 46 59 1.0 7.0 0.00 0.00 0.00 64 1017.3
20260507070040 46 102 1.0 4.0 0.00 0.00 0.00 63 1017.1